COSMOS 2251 DEB, 35703

Orbit data source: Space-Track

COSMOS 2251 DEB, 35703 is space debris in LEO originally from a launch on Wed, 16 Jun 1993 UTC launched from the Plesetsk Missile And Space Complex (PKMTR). The debris from Iridium 33, an American commercial communications satellite, has been tracked extensively since its accidental collision with the defunct Russian satellite Cosmos 2251 in 2009. This event, occurring at high speed in low Earth orbit (LEO), generated thousands of pieces of space debris, significantly increasing the risk of further collisions. The Iridium 33 debris cloud has impacted space traffic management and orbital debris mitigation strategies, making it a subject of ongoing study in space situational awareness.

Loading next visibility...
Identifier
35703, 1993-036APY
Orbit
LEO
Country
Flag of CISCIS
Related business
Manufacturer
Unknown
Mission
Spacecraft
Bus & Motor
Unknown
Mass
Unknown
Launch date (UTC)
1993-06-16 (33 years ago)
Launch vehicle
Unknown
Launch site
Plesetsk Missile And Space Complex (PKMTR)
Object type
Payload
Rocket body
Debris
Shape & HBR
Unknown shape, 0.1 m
Radar Cross Section
Small (<0.1 m²)

Expand to show TLE details & history
Last TLE update: 1 day ago

TLE from 1 day ago
0 COSMOS 2251 DEB
1 35703U 93036APY 25351.39488899  .00004971  00000-0  49401-3 0  9995
2 35703  74.0423  33.4475 0064500 101.7935 259.0492 14.90407715666857
Epoch: 2025-12-17T09:28Z
TLE epoch observation values (Epoch: 2025-12-17T09:28:38.408Z)
Latitude
Longitude
165.0221°
Altitude
608.168 km
Speed
7.551 km/s
True Right ascension
02h 13m 47s
True Declination
0° 00' 00"
Sunlit
Object was in full shadow at epoch
Visualization orbit readout
Latitude
Unknown
Longitude
Unknown
Altitude
Unknown
Speed
Unknown
Apparent Right ascension
Unknown
Apparent Declination
Unknown
Sunlit
N/A
Visualization observer readout
Local Sidereal Time
19:05:50
Azimuth
Unknown
Elevation
Unknown
Doppler factor
Unknown
Orbital elements
Apogee altitude
639.199 km
Perigee altitude
549.255 km
Semi-major axis
6,972.364 km
Eccentricity
0.00645
Inclination
74.0423°
RAAN
33.4475°
Arg. of periapsis
101.7935°
True anomaly
258.32467°
Mean anomaly
259.0492°
Eccentric anomaly
258.68682°
Mean motion
3.72798 °/min
Orbital period
96.57 mins
BSTAR
0.00049401
Loading maneuver chart data...
Computing Atmospheric mass density...

Documentation

Showing up to 5 results
|